Regional Weather Roundup
Issued by NWS

Home | Current Version | Previous Version | Text Only | Print | Product List | Glossary Off
Versions: 1 2 3 4 5 6 7 8 9 10 11 12 13 14 15 16 17 18 19 20 21 22 23 24 25 26 27 28 29 30 31 32 33 34 35 36 37 38 39 40 41 42 43 44 45 46 47 48 49 50

000
ASUS45 KABQ 191910
RWRNM
NEW MEXICO REGIONAL WEATHER ROUNDUP
NATIONAL WEATHER SERVICE ALBUQUERQUE NM
1200 PM MST FRI JAN 19 2018

NOTE: "FAIR" MEANS FEW OR NO CLOUDS BELOW 12,000 FEET AGL WITH NO
       SIGNIFICANT WEATHER OR OBSTRUCTIONS TO VISION.

      THIS PRODUCT IS RELEASED AS TWO VERSIONS.  ONE VERSION NEAR
      THE TOP OF THE HOUR CONTAINING PRELIMINARY DATA FROM ALBUQUERQUE
      AND OTHER STATIONS.  A FINAL VERSION WITH ADDITIONAL DATA IS
      ISSUED ABOUT 10 MINUTES AFTER THE HOUR.

NMZ501-503-504-510>518-192000-
NORTHWEST PLATEAU/NORTHCENTRAL MOUNTAINS

CITY           SKY/WX    TMP DP  RH WIND       PRES   REMARKS
FARMINGTON     FAIR      48  20  32 E7        30.07F
LOS ALAMOS     FAIR      47  12  24 SE5       30.11F
SANTA FE       FAIR      47  15  27 SW8       30.08F
TAOS           FAIR      49   9  19 SW6       30.10F
ANGEL FIRE     FAIR      52   5  14 W10       30.09F

$$
NMZ402-403-502-505>509-192000-
WESTCENTRAL MOUNTAINS/SOUTHWEST MOUNTAINS

CITY           SKY/WX    TMP DP  RH WIND       PRES   REMARKS
GALLUP         FAIR      55  15  20 W18       30.10F
GRANTS         FAIR      45  14  28 CALM      30.12F
SILVER CITY    FAIR      61  14  16 W14       30.13F

$$
NMZ407-409-411-412-192000-
SOUTHERN DESERTS

CITY           SKY/WX    TMP DP  RH WIND       PRES   REMARKS
DEMING         FAIR      57  20  23 SW8       30.12F
LAS CRUCES     FAIR      53  17  24 CALM      30.13F
HOLLOMAN AFB   FAIR      52  15  22 S6        30.15F
ALAMOGORDO     FAIR      50  14  23 SW7       30.14F
T OR C         FAIR      50  16  25 SE7       30.10F

$$
NMZ519>523-192000-
CENTRAL VALLEYS/CENTRAL HIGHLANDS

CITY           SKY/WX    TMP DP  RH WIND       PRES   REMARKS
ALBUQUERQUE    PTSUNNY   47  15  27 CALM      30.11F
DOUBLE EAGLE   PTSUNNY   48  16  27 VRB7      30.12F
MORIARTY ARPT  FAIR      60  11  14 W8        30.07F
CLINES CORNERS FAIR      52  10  18 NW30G41   30.03F
BELEN          FAIR      47  12  24 E3        30.11F
SOCORRO        FAIR      47  12  24 S7        30.11F

$$
NMZ524>526-539-540-192000-
SOUTHCENTRAL MOUNTAINS

CITY           SKY/WX    TMP DP  RH WIND       PRES   REMARKS
RUIDOSO        FAIR      54   5  14 N12       30.09F

$$
NMZ527>531-192000-
NORTHEAST HIGHLANDS/NORTHEAST PLAINS

CITY           SKY/WX    TMP DP  RH WIND       PRES   REMARKS
LAS VEGAS      FAIR      62  13  14 VRB5      29.97F
RATON          FAIR      58  11  15 S6        29.90F
CLAYTON        FAIR      74   9   8 SW13      29.81F

$$
NMZ532>537-192000-
EASTCENTRAL PLAINS

CITY           SKY/WX    TMP DP  RH WIND       PRES   REMARKS
TUCUMCARI      FAIR      65  15  14 W15       29.84F
CANNON AFB     FAIR      60  14  16 W23       29.91F
CLOVIS AIRPORT FAIR      61  15  16 W24       29.91F

$$
NMZ028-029-538-192000-
SOUTHEAST PLAINS

CITY           SKY/WX    TMP DP  RH WIND       PRES   REMARKS
ROSWELL        FAIR      51  15  23 NE7       29.97F
ARTESIA        FAIR      61  19  20 S8        29.97F
CARLSBAD       FAIR      55  18  23 E5        29.97F
HOBBS          SUNNY     64   9  11 SW17G23   29.98F


$$




USA.gov is the U.S. government's official web portal to all federal, state and local government web resources and services.